Kaltag, AK

12:18 PM AKST on December 11, 2019 (GMT -0900)
Kaltag

Weather History for PAKV - November, 2019

Change the Weather History Date:

Thursday, November 14, 2019

  Actual Average (PAGA) Record (PAGA)
Temperature  
Mean Temperature 14 °F -  
Max Temperature 17 °F 9 °F 43 °F (1965)
Min Temperature 10 °F -4 °F -38 °F (1956)
Degree Days  
Heating Degree Days 52    
Moisture  
Dew Point -0 °F    
Average Humidity 56    
Maximum Humidity 73    
Minimum Humidity 45    
Precipitation  
Precipitation 0.00 in - - ()
Sea Level Pressure  
Sea Level Pressure 29.54 in    
Wind  
Wind Speed 22 mph ()    
Max Wind Speed 28 mph    
Max Gust Speed 43 mph    
Visibility 6.4 miles    
Events Snow    
Averages and records for this station are not official NWS values.
T = Trace of Precipitation, MM = Missing Value Source: Averaged Metar Reports

Daily Weather History Graph

Daily Weather History Graph

Search for Another Location

Airport or City:

Astronomy

Nov. 14, 2019 Rise Set
Actual Time 10:02 AM AKST 4:35 PM AKST
Civil Twilight 9:01 AM AKST 5:35 PM AKST
Nautical Twilight 8:01 AM AKST 6:36 PM AKST
Astronomical Twilight 7:04 AM AKST 7:33 PM AKST
Moon 5:44 PM AKST (11/14) 12:51 PM AKST (11/14)
Length of Visible Light 8h 33m
Length of Day
6h 33m
Waning Gibbous, 95% of the Moon is Illuminated
Nov 14
Waning Gibbous
Nov 19
Last Quarter
Nov 26
New
Dec 3
First Quarter
Dec 11
Full

Hourly Weather History & Observations

Time (AKST) Temp. Windchill Dew Point Humidity Pressure Visibility Wind Dir Wind Speed Gust Speed Precip Events Conditions
12:53 AM 10.0 °F -11.1 °F -4.0 °F 53% 29.70 in 10.0 mi NE 26.5 mph 39.1 mph N/A   Overcast
1:53 AM 10.0 °F -9.5 °F -4.0 °F 53% 29.68 in 10.0 mi NE 21.9 mph 38.0 mph N/A   Overcast
2:53 AM 10.0 °F -10.8 °F -4.0 °F 53% 29.64 in 7.0 mi NE 25.3 mph 39.1 mph 0.00 in Snow Light Snow
3:53 AM 10.9 °F -9.6 °F -2.9 °F 54% 29.61 in 9.0 mi NE 25.3 mph 40.3 mph 0.00 in   Mostly Cloudy
4:53 AM 10.9 °F -9.6 °F -0.9 °F 59% 29.59 in 5.0 mi NNE 25.3 mph 41.4 mph 0.00 in Snow Light Snow
5:23 AM 10.0 °F -11.5 °F 1.0 °F 67% 29.56 in 2.5 mi NE 27.6 mph 41.4 mph 0.00 in Snow Light Snow
5:39 AM 10.0 °F -10.0 °F 1.9 °F 70% 29.56 in 1.8 mi NE 23.0 mph 42.6 mph 0.00 in Snow Light Snow
5:51 AM 10.4 °F -10.7 °F 1.4 °F 67% 29.55 in 2.0 mi NE 26.5 mph 38.0 mph 0.00 in Snow Light Snow
5:53 AM 10.0 °F -10.8 °F 3.0 °F 73% 29.57 in 2.0 mi NE 25.3 mph 38.0 mph 0.00 in Snow Light Snow
6:19 AM 10.0 °F -11.5 °F 1.9 °F 70% 29.53 in 2.5 mi NE 27.6 mph 40.3 mph 0.00 in Snow Light Snow
6:38 AM 10.9 °F -8.3 °F 1.9 °F 67% 29.54 in 1.8 mi NE 21.9 mph 42.6 mph 0.00 in Snow Light Snow
7:13 AM 10.9 °F -9.2 °F 1.9 °F 67% 29.52 in 1.8 mi NE 24.2 mph 40.3 mph 0.00 in Snow Light Snow
7:22 AM 10.9 °F -10.3 °F 1.9 °F 67% 29.52 in 2.0 mi NE 27.6 mph 39.1 mph 0.00 in Snow Light Snow
7:53 AM 12.0 °F -6.9 °F 1.0 °F 61% 29.52 in 2.5 mi NE 21.9 mph 38.0 mph 0.00 in Snow Light Snow
8:07 AM 12.0 °F -7.3 °F -0.0 °F 59% 29.51 in 3.0 mi NE 23.0 mph 38.0 mph 0.00 in Snow Light Snow
8:53 AM 12.9 °F -7.3 °F -0.9 °F 54% 29.52 in 7.0 mi NE 26.5 mph 42.6 mph 0.00 in Snow Light Snow
9:53 AM 12.9 °F -6.5 °F -0.9 °F 54% 29.52 in 10.0 mi NE 24.2 mph 38.0 mph 0.00 in   Overcast
10:53 AM 14.0 °F -3.0 °F -0.0 °F 54% 29.52 in 10.0 mi NE 18.4 mph 34.5 mph N/A   Overcast
11:53 AM 14.0 °F - -0.0 °F 54% 29.50 in 10.0 mi North - - N/A   Overcast
12:53 PM 14.0 °F -3.4 °F 3.0 °F 62% 29.49 in 2.5 mi NE 19.6 mph 33.4 mph 0.00 in Snow Light Snow
1:06 PM 14.0 °F -4.3 °F 1.9 °F 59% 29.48 in 4.0 mi NE 21.9 mph 33.4 mph 0.00 in Snow Light Snow
1:19 PM 14.0 °F -5.5 °F 1.9 °F 59% 29.48 in 2.5 mi NE 25.3 mph 38.0 mph 0.00 in Snow Light Snow
1:28 PM 15.1 °F -2.9 °F 1.0 °F 54% 29.48 in 6.0 mi NE 21.9 mph 34.5 mph 0.00 in Snow Light Snow
1:53 PM 15.1 °F -2.9 °F -0.0 °F 51% 29.50 in 5.0 mi NE 21.9 mph 35.7 mph 0.00 in Snow Light Snow
3:53 PM 16.0 °F -2.5 °F -0.9 °F 47% 29.49 in 10.0 mi NE 24.2 mph 34.5 mph N/A   Overcast
4:53 PM 16.0 °F -2.1 °F -0.9 °F 47% 29.50 in 10.0 mi NE 23.0 mph 38.0 mph N/A   Scattered Clouds
5:53 PM 16.0 °F 0.1 °F -0.9 °F 47% 29.51 in 10.0 mi NE 17.3 mph 34.5 mph N/A   Overcast
6:53 PM 17.1 °F 0.1 °F -0.9 °F 45% 29.51 in 10.0 mi NE 20.7 mph 32.2 mph N/A   Overcast
7:53 PM 17.1 °F 0.6 °F -0.0 °F 47% 29.50 in 10.0 mi NE 19.6 mph 38.0 mph N/A   Overcast
8:53 PM 17.1 °F -2.0 °F -0.0 °F 47% 29.51 in 10.0 mi NE 27.6 mph 39.1 mph N/A   Overcast
9:53 PM 17.1 °F 0.1 °F -0.9 °F 45% 29.52 in 10.0 mi NE 20.7 mph 36.8 mph N/A   Overcast
10:53 PM 16.0 °F -3.2 °F -0.9 °F 47% 29.52 in 10.0 mi NE 26.5 mph 40.3 mph N/A   Mostly Cloudy
11:53 PM 16.0 °F -2.5 °F -0.9 °F 47% 29.54 in 10.0 mi NE 24.2 mph 36.8 mph N/A   Clear